Change the Weather History Date:

Friday, February 15, 2013

  Actual Average Record
Temperature  
Mean Temperature 14 °F -  
Max Temperature 24 °F 29 °F 41 °F (2014)
Min Temperature 3 °F 19 °F -5 °F (2005)
Degree Days  
Heating Degree Days 52    
Moisture  
Dew Point 10 °F    
Average Humidity 80    
Maximum Humidity 93    
Minimum Humidity 63    
Precipitation  
Precipitation 0.00 in - - ()
Sea Level Pressure  
Sea Level Pressure 30.08 in    
Wind  
Wind Speed 3 mph ()    
Max Wind Speed 7 mph    
Max Gust Speed -    
Visibility 6.2 miles    
Events      
Averages and records for this station are not official NWS values.
T = Trace of Precipitation, MM = Missing Value Source: Averaged Metar Reports

Daily Weather History Graph

Daily Weather History Graph

Search for Another Location

Airport or City:

Trip Planner

Search our weather history database for the weather conditions in past years. The results will help you decide how hot, cold, wet, or windy it might be!

Date:

Astronomy

Feb. 15, 2013 Rise Set
Actual Time 8:14 AM CET 4:01 PM CET
Civil Twilight 7:11 AM CET 5:05 PM CET
Nautical Twilight 6:04 AM CET 6:12 PM CET
Astronomical Twilight 4:58 AM CET 7:18 PM CET
Moon 7:35 AM CET (2/15) No Moon Set
Length of Visible Light 9h 53m
Length of Day
7h 47m
Waxing Crescent, 28% of the Moon is Illuminated
Feb 15
Waxing Crescent
Feb 17
First Quarter
Feb 25
Full
Mar 4
Last Quarter
Mar 11
New

Hourly Weather History & Observations

Time (CET) Temp. Windchill Dew Point Humidity Pressure Visibility Wind Dir Wind Speed Gust Speed Precip Events Conditions
12:50 AM 17.6 °F 9.3 °F 12.2 °F 79% 30.12 in - Variable 5.8 mph - N/A   Clear
1:50 AM 17.6 °F - 10.4 °F 73% 30.12 in 6.2 mi Variable 2.3 mph - N/A   Unknown
2:20 AM 14.0 °F - 12.2 °F 93% 30.12 in 6.2 mi Variable 2.3 mph - N/A   Unknown
2:50 AM 14.0 °F - 8.6 °F 79% 30.12 in 6.2 mi Variable 1.2 mph - N/A   Unknown
3:20 AM 8.6 °F - 5.0 °F 85% 30.12 in 6.2 mi Calm Calm - N/A   Unknown
3:50 AM 8.6 °F - 6.8 °F 92% 30.12 in 6.2 mi Variable 2.3 mph - N/A   Unknown
4:20 AM 6.8 °F - 5.0 °F 92% 30.12 in 6.2 mi Variable 2.3 mph - N/A   Unknown
4:50 AM 8.6 °F - 6.8 °F 92% 30.09 in 6.2 mi Variable 2.3 mph - N/A   Unknown
5:20 AM 6.8 °F -0.1 °F 3.2 °F 85% 30.09 in 6.2 mi NNE 3.5 mph - N/A   Unknown
5:50 AM 5.0 °F -2.1 °F 3.2 °F 92% 30.09 in - NNE 3.5 mph - N/A   Clear
6:50 AM 5.0 °F -4.1 °F 1.4 °F 85% 30.09 in - NE 4.6 mph - N/A   Clear
7:50 AM 5.0 °F - 3.2 °F 92% 30.09 in - Variable 1.2 mph - N/A   Clear
8:50 AM 3.2 °F -4.2 °F 1.4 °F 92% 30.09 in - NNE 3.5 mph - N/A   Clear
9:50 AM 8.6 °F - 5.0 °F 85% 30.09 in - Calm Calm - N/A   Clear
10:50 AM 14.0 °F - 10.4 °F 86% 30.09 in - Variable 2.3 mph - N/A   Clear
11:50 AM 15.8 °F 10.2 °F 12.2 °F 86% 30.09 in - SSE 3.5 mph - N/A   Clear
12:50 PM 23.0 °F 18.4 °F 14.0 °F 68% 30.09 in - South 3.5 mph - N/A   Clear
1:50 PM 24.8 °F 19.1 °F 14.0 °F 64% 30.06 in - SSE 4.6 mph - N/A   Clear
2:50 PM 23.0 °F 14.7 °F 14.0 °F 68% 30.06 in - SE 6.9 mph - N/A   Clear
3:50 PM 21.2 °F 16.4 °F 14.0 °F 74% 30.06 in - SSE 3.5 mph - N/A   Clear
4:50 PM 19.4 °F - 12.2 °F 74% 30.06 in - Variable 2.3 mph - N/A   Clear
5:50 PM 23.0 °F 17.0 °F 12.2 °F 63% 30.06 in - SSE 4.6 mph - N/A   Clear
6:20 PM 21.2 °F 12.6 °F 14.0 °F 74% 30.06 in - SSE 6.9 mph - N/A   Clear
6:50 PM 21.2 °F 16.4 °F 14.0 °F 74% 30.06 in - SSE 3.5 mph - N/A   Clear
7:50 PM 21.2 °F 16.4 °F 12.2 °F 68% 30.06 in - SSE 3.5 mph - N/A   Clear
8:50 PM 19.4 °F 14.3 °F 12.2 °F 74% 30.06 in - SSE 3.5 mph - N/A   Clear
9:50 PM 21.2 °F - 14.0 °F 74% 30.06 in - Variable 1.2 mph - N/A   Clear
10:50 PM 19.4 °F 12.8 °F 14.0 °F 80% 30.04 in - South 4.6 mph - N/A   Clear
11:50 PM 19.4 °F 11.5 °F 14.0 °F 80% 30.04 in - SSE 5.8 mph - N/A   Clear